Time,TemperatureF,DewpointF,PressureIn,WindDirection,WindDirectionDegrees,WindSpeedMPH,WindSpeedGustMPH,Humidity,HourlyPrecipIn,Conditions,Clouds,dailyrainin,SoftwareType,DateUTC
2013-07-08 00:00:00,72.9,71.4,29.93,SSE,161,0.0,0.0,95,0.01,,---,0.03,VWS V14.01,2013-07-08 04:00:00,
2013-07-08 00:05:00,72.8,71.0,29.92,SSE,161,0.0,0.0,94,0.01,,---,0.00,VWS V14.01,2013-07-08 04:05:00,
2013-07-08 00:10:00,72.8,71.0,29.92,SSE,161,0.0,0.0,94,0.01,,---,0.00,VWS V14.01,2013-07-08 04:10:00,
2013-07-08 00:15:00,72.8,71.3,29.92,SSE,161,0.0,0.0,95,0.01,,---,0.00,VWS V14.01,2013-07-08 04:15:00,
2013-07-08 00:20:00,72.7,71.2,29.92,SSE,161,0.0,0.0,95,0.01,,---,0.00,VWS V14.01,2013-07-08 04:20:00,
2013-07-08 00:25:00,72.7,71.2,29.92,SSE,161,0.0,0.0,95,0.01,,---,0.00,VWS V14.01,2013-07-08 04:25:00,
2013-07-08 00:30:00,72.8,71.3,29.92,SSE,161,0.0,0.0,95,0.01,,---,0.00,VWS V14.01,2013-07-08 04:30:00,
2013-07-08 00:35:00,72.8,71.3,29.91,SSE,161,0.0,0.0,95,0.01,,---,0.00,VWS V14.01,2013-07-08 04:35:00,
2013-07-08 00:40:00,72.7,71.2,29.91,SSE,161,0.0,0.0,95,0.01,,---,0.00,VWS V14.01,2013-07-08 04:40:00,
2013-07-08 00:45:00,72.7,71.2,29.91,SSE,161,0.0,0.0,95,0.01,,---,0.00,VWS V14.01,2013-07-08 04:45:00,
2013-07-08 00:50:00,72.6,71.1,29.91,SSE,161,0.0,0.0,95,0.01,,---,0.00,VWS V14.01,2013-07-08 04:50:00,
2013-07-08 00:55:00,72.6,71.1,29.91,SSE,161,0.0,0.0,95,0.01,,---,0.00,VWS V14.01,2013-07-08 04:55:00,
2013-07-08 01:00:00,72.6,71.1,29.92,SSE,161,0.0,0.0,95,0.01,,---,0.00,VWS V14.01,2013-07-08 05:00:00,
2013-07-08 01:05:00,72.5,71.0,29.91,SSE,161,0.0,0.0,95,0.00,,---,0.00,VWS V14.01,2013-07-08 05:05:00,
2013-07-08 01:10:00,72.5,71.0,29.92,SSE,161,0.0,0.0,95,0.00,,---,0.00,VWS V14.01,2013-07-08 05:10:00,
2013-07-08 01:15:00,72.4,70.9,29.91,SSE,161,0.0,0.0,95,0.00,,---,0.00,VWS V14.01,2013-07-08 05:15:00,
2013-07-08 01:20:00,72.4,71.2,29.92,SSE,161,0.0,0.0,96,0.00,,---,0.00,VWS V14.01,2013-07-08 05:20:00,
2013-07-08 01:25:00,72.5,71.3,29.92,SSE,161,0.0,0.0,96,0.00,,---,0.00,VWS V14.01,2013-07-08 05:25:00,
2013-07-08 01:30:00,72.6,71.4,29.93,SSE,161,0.0,0.0,96,0.00,,---,0.00,VWS V14.01,2013-07-08 05:30:00,
2013-07-08 01:35:00,73.0,72.1,29.93,SSE,161,0.0,0.0,97,0.00,,---,0.00,VWS V14.01,2013-07-08 05:35:00,
2013-07-08 01:40:00,73.2,72.0,29.93,SSE,161,0.0,0.0,96,0.00,,---,0.00,VWS V14.01,2013-07-08 05:40:00,
2013-07-08 01:45:00,73.2,72.0,29.93,SSE,161,0.0,0.0,96,0.00,,---,0.00,VWS V14.01,2013-07-08 05:45:00,
2013-07-08 01:50:00,73.3,72.1,29.93,SSE,161,0.0,0.0,96,0.00,,---,0.00,VWS V14.01,2013-07-08 05:50:00,
2013-07-08 01:55:00,73.4,72.2,29.93,SSE,161,0.0,0.0,96,0.00,,---,0.00,VWS V14.01,2013-07-08 05:55:00,
2013-07-08 02:00:00,73.5,72.3,29.93,SSE,161,0.0,0.0,96,0.00,,---,0.00,VWS V14.01,2013-07-08 06:00:00,
2013-07-08 02:05:00,73.6,72.4,29.93,SSE,161,0.0,0.0,96,0.00,,---,0.00,VWS V14.01,2013-07-08 06:05:00,
2013-07-08 02:10:00,73.7,72.5,29.92,SSE,161,0.0,0.0,96,0.00,,---,0.00,VWS V14.01,2013-07-08 06:10:00,
2013-07-08 02:15:00,73.7,72.5,29.92,SSE,161,0.0,0.0,96,0.00,,---,0.00,VWS V14.01,2013-07-08 06:15:00,
2013-07-08 02:20:00,73.7,72.5,29.92,SSE,161,0.0,0.0,96,0.00,,---,0.00,VWS V14.01,2013-07-08 06:20:00,
2013-07-08 02:25:00,73.6,72.4,29.92,SSE,161,0.0,0.0,96,0.00,,---,0.00,VWS V14.01,2013-07-08 06:25:00,
2013-07-08 02:30:00,73.5,72.3,29.92,SSE,165,0.0,1.0,96,0.00,,---,0.00,VWS V14.01,2013-07-08 06:30:00,
2013-07-08 02:35:00,73.7,72.8,29.92,SSE,165,0.0,0.0,97,0.00,,---,0.00,VWS V14.01,2013-07-08 06:35:00,
2013-07-08 02:40:00,73.8,72.9,29.92,SSE,165,0.0,1.0,97,0.00,,---,0.00,VWS V14.01,2013-07-08 06:40:00,
2013-07-08 02:45:00,73.8,72.6,29.92,SSE,165,0.0,0.0,96,0.00,,---,0.00,VWS V14.01,2013-07-08 06:45:00,
2013-07-08 02:50:00,73.9,73.0,29.92,SSE,165,0.0,0.0,97,0.00,,---,0.00,VWS V14.01,2013-07-08 06:50:00,
2013-07-08 02:55:00,74.0,72.8,29.91,SSE,165,0.0,0.0,96,0.00,,---,0.00,VWS V14.01,2013-07-08 06:55:00,
2013-07-08 03:00:00,74.0,72.8,29.91,SSE,165,0.0,0.0,96,0.00,,---,0.00,VWS V14.01,2013-07-08 07:00:00,
2013-07-08 03:05:00,73.9,72.7,29.91,SSE,165,0.0,0.0,96,0.00,,---,0.00,VWS V14.01,2013-07-08 07:05:00,
2013-07-08 03:10:00,73.9,72.7,29.91,SSE,165,0.0,0.0,96,0.00,,---,0.00,VWS V14.01,2013-07-08 07:10:00,
2013-07-08 03:15:00,73.9,72.7,29.91,SSE,165,0.0,0.0,96,0.00,,---,0.00,VWS V14.01,2013-07-08 07:15:00,
2013-07-08 03:20:00,73.9,72.7,29.91,SSE,165,0.0,0.0,96,0.00,,---,0.00,VWS V14.01,2013-07-08 07:20:00,
2013-07-08 03:25:00,74.0,72.8,29.91,SSE,165,0.0,1.0,96,0.00,,---,0.00,VWS V14.01,2013-07-08 07:25:00,
2013-07-08 03:30:00,74.1,72.9,29.91,SSE,165,1.0,2.0,96,0.00,,---,0.00,VWS V14.01,2013-07-08 07:30:00,
2013-07-08 03:35:00,74.2,73.0,29.91,SSE,165,0.0,1.0,96,0.00,,---,0.00,VWS V14.01,2013-07-08 07:35:00,
2013-07-08 03:40:00,74.3,73.1,29.91,SSE,165,0.0,0.0,96,0.00,,---,0.00,VWS V14.01,2013-07-08 07:40:00,
2013-07-08 03:45:00,74.2,73.0,29.91,SSE,165,0.0,1.0,96,0.00,,---,0.00,VWS V14.01,2013-07-08 07:45:00,
2013-07-08 03:50:00,74.2,73.0,29.91,SSE,165,0.0,0.0,96,0.00,,---,0.00,VWS V14.01,2013-07-08 07:50:00,
2013-07-08 03:55:00,74.2,73.0,29.90,SSE,165,0.0,0.0,96,0.00,,---,0.00,VWS V14.01,2013-07-08 07:55:00,
2013-07-08 04:00:00,74.0,72.8,29.90,SSE,165,0.0,0.0,96,0.00,,---,0.00,VWS V14.01,2013-07-08 08:00:00,
2013-07-08 04:05:00,73.9,72.7,29.90,SSE,165,0.0,0.0,96,0.00,,---,0.00,VWS V14.01,2013-07-08 08:05:00,
2013-07-08 04:10:00,73.9,72.7,29.90,SSE,165,0.0,0.0,96,0.00,,---,0.00,VWS V14.01,2013-07-08 08:10:00,
2013-07-08 04:15:00,73.7,72.5,29.90,SSE,165,0.0,0.0,96,0.00,,---,0.00,VWS V14.01,2013-07-08 08:15:00,
2013-07-08 04:20:00,73.6,72.4,29.91,SSE,165,0.0,1.0,96,0.00,,---,0.00,VWS V14.01,2013-07-08 08:20:00,
2013-07-08 04:25:00,73.6,72.4,29.91,SSE,165,0.0,0.0,96,0.00,,---,0.00,VWS V14.01,2013-07-08 08:25:00,
2013-07-08 04:30:00,73.6,72.4,29.91,SSE,165,0.0,1.0,96,0.00,,---,0.00,VWS V14.01,2013-07-08 08:30:00,
2013-07-08 04:35:00,73.6,72.4,29.91,SSE,165,0.0,0.0,96,0.00,,---,0.00,VWS V14.01,2013-07-08 08:35:00,
2013-07-08 04:40:00,73.7,72.8,29.91,SSE,165,0.0,0.0,97,0.00,,---,0.00,VWS V14.01,2013-07-08 08:40:00,
2013-07-08 04:45:00,73.7,72.8,29.91,SSE,165,0.0,0.0,97,0.00,,---,0.00,VWS V14.01,2013-07-08 08:45:00,
2013-07-08 04:50:00,73.7,72.5,29.91,SSE,165,0.0,0.0,96,0.00,,---,0.00,VWS V14.01,2013-07-08 08:50:00,
2013-07-08 04:55:00,73.7,72.8,29.91,SSE,165,0.0,1.0,97,0.00,,---,0.00,VWS V14.01,2013-07-08 08:55:00,
2013-07-08 05:00:00,73.7,72.8,29.91,SSE,165,0.0,0.0,97,0.00,,---,0.00,VWS V14.01,2013-07-08 09:00:00,
2013-07-08 05:05:00,73.7,72.8,29.91,SSE,165,0.0,1.0,97,0.00,,---,0.00,VWS V14.01,2013-07-08 09:05:00,
2013-07-08 05:10:00,73.8,72.9,29.91,SSE,165,0.0,1.0,97,0.00,,---,0.00,VWS V14.01,2013-07-08 09:10:00,
2013-07-08 05:15:00,73.8,72.9,29.91,SSE,165,0.0,0.0,97,0.00,,---,0.00,VWS V14.01,2013-07-08 09:15:00,
2013-07-08 05:20:00,73.8,72.9,29.91,SSE,165,0.0,1.0,97,0.00,,---,0.00,VWS V14.01,2013-07-08 09:20:00,
2013-07-08 05:25:00,73.8,72.9,29.92,SSE,165,0.0,1.0,97,0.00,,---,0.00,VWS V14.01,2013-07-08 09:25:00,
2013-07-08 05:30:00,73.8,72.9,29.92,SSE,165,0.0,0.0,97,0.00,,---,0.00,VWS V14.01,2013-07-08 09:30:00,
2013-07-08 05:35:00,73.9,73.0,29.92,SSE,165,0.0,1.0,97,0.00,,---,0.00,VWS V14.01,2013-07-08 09:35:00,
2013-07-08 05:40:00,73.9,73.0,29.92,SSE,165,0.0,0.0,97,0.00,,---,0.00,VWS V14.01,2013-07-08 09:40:00,
2013-07-08 05:45:00,73.8,72.9,29.92,SSE,165,0.0,0.0,97,0.00,,---,0.00,VWS V14.01,2013-07-08 09:45:00,
2013-07-08 05:50:00,73.9,73.0,29.92,SSE,165,0.0,0.0,97,0.00,,---,0.00,VWS V14.01,2013-07-08 09:50:00,
2013-07-08 05:55:00,73.8,72.9,29.92,SSE,165,0.0,0.0,97,0.00,,---,0.00,VWS V14.01,2013-07-08 09:55:00,
2013-07-08 06:00:00,73.8,72.9,29.92,SSE,165,0.0,0.0,97,0.00,,---,0.00,VWS V14.01,2013-07-08 10:00:00,
2013-07-08 06:05:00,73.9,73.0,29.92,SSE,165,0.0,0.0,97,0.00,,---,0.00,VWS V14.01,2013-07-08 10:05:00,
2013-07-08 06:10:00,73.9,73.0,29.92,SSE,165,0.0,0.0,97,0.00,,---,0.00,VWS V14.01,2013-07-08 10:10:00,
2013-07-08 06:15:00,73.8,72.9,29.92,SSE,165,0.0,0.0,97,0.00,,---,0.00,VWS V14.01,2013-07-08 10:15:00,
2013-07-08 06:20:00,73.8,72.9,29.92,SSE,165,0.0,0.0,97,0.00,,---,0.00,VWS V14.01,2013-07-08 10:20:00,
2013-07-08 06:25:00,73.9,73.0,29.93,SSE,165,0.0,0.0,97,0.00,,---,0.00,VWS V14.01,2013-07-08 10:25:00,
2013-07-08 06:30:00,74.0,73.1,29.93,SSE,165,0.0,1.0,97,0.00,,---,0.00,VWS V14.01,2013-07-08 10:30:00,
2013-07-08 06:35:00,74.1,73.2,29.93,SSE,165,0.0,1.0,97,0.00,,---,0.00,VWS V14.01,2013-07-08 10:35:00,
2013-07-08 06:40:00,74.2,73.3,29.93,ENE,72,0.0,2.0,97,0.00,,---,0.00,VWS V14.01,2013-07-08 10:40:00,
2013-07-08 06:45:00,74.4,73.2,29.93,ENE,70,0.0,1.0,96,0.00,,---,0.00,VWS V14.01,2013-07-08 10:45:00,
2013-07-08 06:50:00,74.5,73.3,29.93,ENE,69,0.0,3.0,96,0.00,,---,0.00,VWS V14.01,2013-07-08 10:50:00,
2013-07-08 06:55:00,74.6,73.4,29.93,ENE,69,0.0,1.0,96,0.00,,---,0.00,VWS V14.01,2013-07-08 10:55:00,
2013-07-08 07:00:00,74.8,73.3,29.93,ENE,64,1.0,2.0,95,0.00,,---,0.00,VWS V14.01,2013-07-08 11:00:00,
2013-07-08 07:05:00,75.1,73.6,29.93,NE,35,1.0,3.0,95,0.00,,---,0.00,VWS V14.01,2013-07-08 11:05:00,
2013-07-08 07:10:00,75.3,73.5,29.93,ENE,69,0.0,2.0,94,0.00,,---,0.00,VWS V14.01,2013-07-08 11:10:00,
2013-07-08 07:15:00,75.6,73.8,29.93,WNW,296,0.0,4.0,94,0.00,,---,0.00,VWS V14.01,2013-07-08 11:15:00,
2013-07-08 07:20:00,75.8,73.6,29.93,WNW,287,1.0,3.0,93,0.00,,---,0.00,VWS V14.01,2013-07-08 11:20:00,
2013-07-08 07:25:00,76.1,73.9,29.93,SW,214,0.0,4.0,93,0.00,,---,0.00,VWS V14.01,2013-07-08 11:25:00,
2013-07-08 07:30:00,76.3,73.8,29.93,SSW,200,0.0,4.0,92,0.00,,---,0.00,VWS V14.01,2013-07-08 11:30:00,
2013-07-08 07:35:00,76.6,74.1,29.93,East,91,1.0,2.0,92,0.00,,---,0.00,VWS V14.01,2013-07-08 11:35:00,
2013-07-08 07:40:00,76.8,74.0,29.93,North,359,1.0,4.0,91,0.00,,---,0.00,VWS V14.01,2013-07-08 11:40:00,
2013-07-08 07:45:00,77.1,73.9,29.93,ENE,64,0.0,4.0,90,0.00,,---,0.00,VWS V14.01,2013-07-08 11:45:00,
2013-07-08 07:50:00,77.3,73.8,29.93,NE,35,2.0,5.0,89,0.00,,---,0.00,VWS V14.01,2013-07-08 11:50:00,
2013-07-08 07:55:00,77.6,74.1,29.94,North,5,0.0,3.0,89,0.00,,---,0.00,VWS V14.01,2013-07-08 11:55:00,
2013-07-08 08:00:00,77.7,74.2,29.94,NNE,14,1.0,2.0,89,0.00,,---,0.00,VWS V14.01,2013-07-08 12:00:00,
2013-07-08 08:05:00,77.8,74.0,29.94,NE,40,0.0,5.0,88,0.00,,---,0.00,VWS V14.01,2013-07-08 12:05:00,
2013-07-08 08:10:00,78.0,74.5,29.94,NE,35,0.0,3.0,89,0.00,,---,0.00,VWS V14.01,2013-07-08 12:10:00,
2013-07-08 08:15:00,78.2,74.7,29.93,NE,56,0.0,3.0,89,0.00,,---,0.00,VWS V14.01,2013-07-08 12:15:00,
2013-07-08 08:20:00,78.4,74.2,29.94,West,271,3.0,5.0,87,0.00,,---,0.00,VWS V14.01,2013-07-08 12:20:00,
2013-07-08 08:25:00,78.6,74.8,29.94,North,6,1.0,6.0,88,0.00,,---,0.00,VWS V14.01,2013-07-08 12:25:00,
2013-07-08 08:30:00,79.0,74.8,29.94,NW,323,4.0,4.0,87,0.00,,---,0.00,VWS V14.01,2013-07-08 12:30:00,
2013-07-08 08:35:00,79.1,74.6,29.94,NE,40,2.0,6.0,86,0.00,,---,0.00,VWS V14.01,2013-07-08 12:35:00,
2013-07-08 08:40:00,79.0,74.5,29.94,West,275,0.0,5.0,86,0.00,,---,0.00,VWS V14.01,2013-07-08 12:40:00,
2013-07-08 08:45:00,78.9,74.4,29.94,NNE,23,1.0,5.0,86,0.00,,---,0.00,VWS V14.01,2013-07-08 12:45:00,
2013-07-08 08:50:00,79.1,74.9,29.94,NNE,23,0.0,3.0,87,0.00,,---,0.00,VWS V14.01,2013-07-08 12:50:00,
2013-07-08 08:55:00,79.1,74.6,29.93,NE,40,1.0,3.0,86,0.00,,---,0.00,VWS V14.01,2013-07-08 12:55:00,
2013-07-08 09:00:00,79.1,74.6,29.93,NNE,13,0.0,4.0,86,0.00,,---,0.00,VWS V14.01,2013-07-08 13:00:00,
2013-07-08 09:05:00,79.0,74.8,29.94,NE,46,0.0,4.0,87,0.00,,---,0.00,VWS V14.01,2013-07-08 13:05:00,
2013-07-08 09:10:00,79.2,75.0,29.94,NE,46,0.0,1.0,87,0.00,,---,0.00,VWS V14.01,2013-07-08 13:10:00,
2013-07-08 09:15:00,79.3,74.8,29.94,North,5,1.0,6.0,86,0.00,,---,0.00,VWS V14.01,2013-07-08 13:15:00,
2013-07-08 09:20:00,79.4,74.8,29.94,SW,232,1.0,5.0,86,0.00,,---,0.00,VWS V14.01,2013-07-08 13:20:00,
2013-07-08 09:25:00,79.6,75.1,29.94,WSW,254,1.0,4.0,86,0.00,,---,0.00,VWS V14.01,2013-07-08 13:25:00,
2013-07-08 09:30:00,80.0,75.1,29.94,West,271,0.0,5.0,85,0.00,,---,0.00,VWS V14.01,2013-07-08 13:30:00,
2013-07-08 09:35:00,80.5,75.9,29.94,NNE,30,3.0,4.0,86,0.00,,---,0.00,VWS V14.01,2013-07-08 13:35:00,
2013-07-08 09:40:00,80.7,74.7,29.94,NNE,17,0.0,4.0,82,0.00,,---,0.00,VWS V14.01,2013-07-08 13:40:00,
2013-07-08 09:45:00,80.9,74.9,29.94,NE,54,1.0,5.0,82,0.00,,---,0.00,VWS V14.01,2013-07-08 13:45:00,
2013-07-08 09:50:00,81.0,75.3,29.95,WNW,282,2.0,2.0,83,0.00,,---,0.00,VWS V14.01,2013-07-08 13:50:00,
2013-07-08 09:55:00,81.0,75.3,29.95,SW,227,0.0,2.0,83,0.00,,---,0.00,VWS V14.01,2013-07-08 13:55:00,
2013-07-08 10:00:00,81.1,75.8,29.95,NW,323,1.0,3.0,84,0.00,,---,0.00,VWS V14.01,2013-07-08 14:00:00,
2013-07-08 10:05:00,81.4,75.4,29.95,SSW,203,0.0,3.0,82,0.00,,---,0.00,VWS V14.01,2013-07-08 14:05:00,
2013-07-08 10:10:00,81.7,76.0,29.95,ENE,70,0.0,2.0,83,0.00,,---,0.00,VWS V14.01,2013-07-08 14:10:00,
2013-07-08 10:15:00,82.5,76.4,29.95,SSW,196,1.0,2.0,82,0.00,,---,0.00,VWS V14.01,2013-07-08 14:15:00,
2013-07-08 10:20:00,82.9,76.1,29.95,NE,50,0.0,4.0,80,0.00,,---,0.00,VWS V14.01,2013-07-08 14:20:00,
2013-07-08 10:25:00,82.7,75.9,29.95,NE,44,1.0,3.0,80,0.00,,---,0.00,VWS V14.01,2013-07-08 14:25:00,
2013-07-08 10:30:00,82.4,75.6,29.95,WNW,294,1.0,3.0,80,0.00,,---,0.00,VWS V14.01,2013-07-08 14:30:00,
2013-07-08 10:35:00,82.1,75.7,29.95,South,176,0.0,4.0,81,0.00,,---,0.00,VWS V14.01,2013-07-08 14:35:00,
2013-07-08 10:40:00,82.0,75.6,29.95,SW,228,2.0,3.0,81,0.00,,---,0.00,VWS V14.01,2013-07-08 14:40:00,
2013-07-08 10:45:00,82.3,76.6,29.94,WSW,245,1.0,3.0,83,0.00,,---,0.00,VWS V14.01,2013-07-08 14:45:00,
2013-07-08 10:50:00,82.4,75.6,29.94,West,272,0.0,3.0,80,0.00,,---,0.00,VWS V14.01,2013-07-08 14:50:00,
2013-07-08 10:55:00,82.5,75.7,29.95,SW,225,1.0,4.0,80,0.00,,---,0.00,VWS V14.01,2013-07-08 14:55:00,
2013-07-08 11:00:00,82.6,75.8,29.95,North,359,0.0,2.0,80,0.00,,---,0.00,VWS V14.01,2013-07-08 15:00:00,
2013-07-08 11:05:00,83.0,76.6,29.95,WNW,300,2.0,3.0,81,0.00,,---,0.00,VWS V14.01,2013-07-08 15:05:00,
2013-07-08 11:10:00,83.2,75.6,29.95,ENE,72,2.0,4.0,78,0.00,,---,0.00,VWS V14.01,2013-07-08 15:10:00,
2013-07-08 11:15:00,83.0,75.8,29.95,SSW,207,0.0,3.0,79,0.00,,---,0.00,VWS V14.01,2013-07-08 15:15:00,
2013-07-08 11:20:00,82.8,76.0,29.95,SE,145,0.0,1.0,80,0.00,,---,0.00,VWS V14.01,2013-07-08 15:20:00,
2013-07-08 11:25:00,82.4,75.2,29.96,SSE,161,0.0,2.0,79,0.00,,---,0.00,VWS V14.01,2013-07-08 15:25:00,
2013-07-08 11:30:00,81.9,75.5,29.96,North,358,0.0,2.0,81,0.00,,---,0.00,VWS V14.01,2013-07-08 15:30:00,
2013-07-08 11:35:00,81.9,75.9,29.96,North,358,0.0,1.0,82,0.00,,---,0.00,VWS V14.01,2013-07-08 15:35:00,
2013-07-08 11:40:00,82.3,75.9,29.95,SSE,161,0.0,4.0,81,0.00,,---,0.00,VWS V14.01,2013-07-08 15:40:00,
2013-07-08 11:45:00,83.0,76.2,29.95,North,7,3.0,4.0,80,0.00,,---,0.00,VWS V14.01,2013-07-08 15:45:00,
2013-07-08 11:50:00,83.5,75.9,29.96,South,179,1.0,4.0,78,0.00,,---,0.00,VWS V14.01,2013-07-08 15:50:00,
2013-07-08 11:55:00,84.1,76.5,29.96,NW,316,1.0,2.0,78,0.00,,---,0.00,VWS V14.01,2013-07-08 15:55:00,
2013-07-08 12:00:00,84.4,76.0,29.96,NW,307,0.0,2.0,76,0.00,,---,0.00,VWS V14.01,2013-07-08 16:00:00,
2013-07-08 12:05:00,84.6,76.6,29.96,ESE,120,1.0,4.0,77,0.00,,---,0.00,VWS V14.01,2013-07-08 16:05:00,
2013-07-08 12:10:00,84.8,76.4,29.96,SSE,153,1.0,2.0,76,0.00,,---,0.00,VWS V14.01,2013-07-08 16:10:00,
2013-07-08 12:15:00,84.7,76.3,29.96,SW,231,0.0,2.0,76,0.00,,---,0.00,VWS V14.01,2013-07-08 16:15:00,
2013-07-08 12:20:00,84.9,77.7,29.96,SW,227,0.0,2.0,79,0.00,,---,0.00,VWS V14.01,2013-07-08 16:20:00,
2013-07-08 12:25:00,85.1,75.9,29.96,SSE,152,1.0,3.0,74,0.00,,---,0.00,VWS V14.01,2013-07-08 16:25:00,
2013-07-08 12:30:00,84.8,75.2,29.96,South,185,0.0,4.0,73,0.00,,---,0.00,VWS V14.01,2013-07-08 16:30:00,
2013-07-08 12:35:00,83.7,74.5,29.96,ESE,119,0.0,2.0,74,0.00,,---,0.00,VWS V14.01,2013-07-08 16:35:00,
2013-07-08 12:40:00,83.2,75.2,29.96,ESE,119,0.0,2.0,77,0.00,,---,0.00,VWS V14.01,2013-07-08 16:40:00,
2013-07-08 12:45:00,83.2,74.8,29.96,ESE,119,0.0,2.0,76,0.00,,---,0.00,VWS V14.01,2013-07-08 16:45:00,
2013-07-08 12:50:00,82.8,74.5,29.96,North,354,1.0,3.0,76,0.00,,---,0.00,VWS V14.01,2013-07-08 16:50:00,
2013-07-08 12:55:00,82.4,74.9,29.96,South,169,0.0,2.0,78,0.00,,---,0.00,VWS V14.01,2013-07-08 16:55:00,
2013-07-08 13:00:00,82.5,74.9,29.96,NNW,346,2.0,4.0,78,0.00,,---,0.00,VWS V14.01,2013-07-08 17:00:00,
2013-07-08 13:05:00,82.3,74.4,29.96,SE,146,0.0,4.0,77,0.00,,---,0.00,VWS V14.01,2013-07-08 17:05:00,
2013-07-08 13:10:00,82.1,74.6,29.96,SW,229,2.0,2.0,78,0.00,,---,0.00,VWS V14.01,2013-07-08 17:10:00,
2013-07-08 13:15:00,81.5,74.0,29.96,SSE,163,0.0,3.0,78,0.00,,---,0.00,VWS V14.01,2013-07-08 17:15:00,
2013-07-08 13:20:00,81.0,73.9,29.97,NW,316,0.0,2.0,79,0.00,,---,0.00,VWS V14.01,2013-07-08 17:20:00,
2013-07-08 13:25:00,80.6,73.5,29.97,North,360,0.0,4.0,79,0.00,,---,0.00,VWS V14.01,2013-07-08 17:25:00,
2013-07-08 13:30:00,80.3,73.6,29.97,North,360,0.0,2.0,80,0.00,,---,0.00,VWS V14.01,2013-07-08 17:30:00,
2013-07-08 13:35:00,80.3,74.3,29.97,South,190,1.0,3.0,82,0.00,,---,0.00,VWS V14.01,2013-07-08 17:35:00,
2013-07-08 13:40:00,80.5,74.1,29.97,SE,139,0.0,3.0,81,0.00,,---,0.00,VWS V14.01,2013-07-08 17:40:00,
2013-07-08 13:45:00,80.5,73.4,29.97,South,169,1.0,5.0,79,0.00,,---,0.00,VWS V14.01,2013-07-08 17:45:00,
2013-07-08 13:50:00,80.2,74.2,29.96,West,279,0.0,3.0,82,0.00,,---,0.00,VWS V14.01,2013-07-08 17:50:00,
2013-07-08 13:55:00,80.0,74.4,29.97,NNW,346,0.0,3.0,83,0.00,,---,0.00,VWS V14.01,2013-07-08 17:55:00,
2013-07-08 14:00:00,79.1,73.8,29.97,NNW,346,0.0,1.0,84,0.00,,---,0.00,VWS V14.01,2013-07-08 18:00:00,
2013-07-08 14:05:00,78.6,74.1,29.97,NNW,346,0.0,0.0,86,0.00,,---,0.00,VWS V14.01,2013-07-08 18:05:00,
2013-07-08 14:10:00,78.4,74.2,29.97,North,350,0.0,1.0,87,0.00,,---,0.00,VWS V14.01,2013-07-08 18:10:00,
2013-07-08 14:15:00,78.4,74.9,29.97,North,350,0.0,1.0,89,0.00,,---,0.00,VWS V14.01,2013-07-08 18:15:00,
2013-07-08 14:20:00,78.6,74.4,29.97,South,182,0.0,3.0,87,0.00,,---,0.00,VWS V14.01,2013-07-08 18:20:00,
2013-07-08 14:25:00,79.3,75.1,29.97,NNE,15,0.0,2.0,87,0.00,,---,0.00,VWS V14.01,2013-07-08 18:25:00,
2013-07-08 14:30:00,79.6,74.3,29.97,SSE,152,0.0,3.0,84,0.00,,---,0.00,VWS V14.01,2013-07-08 18:30:00,
2013-07-08 14:35:00,79.7,74.4,29.97,SSW,204,1.0,3.0,84,0.00,,---,0.00,VWS V14.01,2013-07-08 18:35:00,
2013-07-08 14:40:00,79.8,74.2,29.97,South,181,0.0,2.0,83,0.00,,---,0.00,VWS V14.01,2013-07-08 18:40:00,
2013-07-08 14:45:00,80.3,75.0,29.97,North,349,0.0,2.0,84,0.00,,---,0.00,VWS V14.01,2013-07-08 18:45:00,
2013-07-08 14:50:00,81.0,75.0,29.97,South,181,0.0,2.0,82,0.00,,---,0.00,VWS V14.01,2013-07-08 18:50:00,
2013-07-08 14:55:00,81.3,75.3,29.97,SE,125,0.0,3.0,82,0.00,,---,0.00,VWS V14.01,2013-07-08 18:55:00,
2013-07-08 15:00:00,81.8,75.0,29.96,SSE,163,0.0,1.0,80,0.00,,---,0.00,VWS V14.01,2013-07-08 19:00:00,
2013-07-08 15:05:00,81.9,75.1,29.97,SSE,154,1.0,3.0,80,0.00,,---,0.00,VWS V14.01,2013-07-08 19:05:00,
2013-07-08 15:10:00,82.0,74.8,29.96,ENE,78,1.0,1.0,79,0.00,,---,0.00,VWS V14.01,2013-07-08 19:10:00,
2013-07-08 15:15:00,82.2,75.4,29.96,North,4,0.0,3.0,80,0.00,,---,0.00,VWS V14.01,2013-07-08 19:15:00,
2013-07-08 15:20:00,82.5,75.3,29.96,South,171,0.0,2.0,79,0.00,,---,0.00,VWS V14.01,2013-07-08 19:20:00,
2013-07-08 15:25:00,82.6,75.1,29.96,East,94,0.0,1.0,78,0.00,,---,0.00,VWS V14.01,2013-07-08 19:25:00,
2013-07-08 15:30:00,82.9,75.3,29.96,SSE,157,1.0,2.0,78,0.00,,---,0.00,VWS V14.01,2013-07-08 19:30:00,
2013-07-08 15:35:00,83.0,75.4,29.96,NE,46,0.0,3.0,78,0.00,,---,0.00,VWS V14.01,2013-07-08 19:35:00,
2013-07-08 15:40:00,83.2,74.8,29.96,SSE,152,1.0,4.0,76,0.00,,---,0.00,VWS V14.01,2013-07-08 19:40:00,
2013-07-08 15:45:00,83.3,75.7,29.96,WNW,301,1.0,2.0,78,0.00,,---,0.00,VWS V14.01,2013-07-08 19:45:00,
2013-07-08 15:50:00,83.4,75.4,29.96,NE,49,0.0,3.0,77,0.00,,---,0.00,VWS V14.01,2013-07-08 19:50:00,
2013-07-08 15:55:00,83.7,75.3,29.96,ESE,116,2.0,2.0,76,0.00,,---,0.00,VWS V14.01,2013-07-08 19:55:00,
2013-07-08 16:00:00,83.8,75.0,29.96,ESE,120,1.0,3.0,75,0.00,,---,0.00,VWS V14.01,2013-07-08 20:00:00,
2013-07-08 16:05:00,83.9,75.1,29.96,North,2,1.0,3.0,75,0.00,,---,0.00,VWS V14.01,2013-07-08 20:05:00,
2013-07-08 16:10:00,83.8,75.0,29.95,SSW,213,1.0,3.0,75,0.00,,---,0.00,VWS V14.01,2013-07-08 20:10:00,
2013-07-08 16:15:00,83.9,75.5,29.95,South,172,1.0,2.0,76,0.00,,---,0.00,VWS V14.01,2013-07-08 20:15:00,
2013-07-08 16:20:00,84.0,75.2,29.95,ESE,106,0.0,2.0,75,0.00,,---,0.00,VWS V14.01,2013-07-08 20:20:00,
2013-07-08 16:25:00,83.9,74.7,29.95,SE,144,0.0,2.0,74,0.00,,---,0.00,VWS V14.01,2013-07-08 20:25:00,
2013-07-08 16:30:00,84.1,74.1,29.95,ESE,117,1.0,2.0,72,0.00,,---,0.00,VWS V14.01,2013-07-08 20:30:00,
2013-07-08 16:35:00,84.1,74.5,29.95,ESE,117,0.0,2.0,73,0.00,,---,0.00,VWS V14.01,2013-07-08 20:35:00,
2013-07-08 16:40:00,83.9,73.9,29.95,NNW,334,1.0,2.0,72,0.00,,---,0.00,VWS V14.01,2013-07-08 20:40:00,
2013-07-08 16:45:00,83.7,72.9,29.96,SE,129,0.0,3.0,70,0.00,,---,0.00,VWS V14.01,2013-07-08 20:45:00,
2013-07-08 16:50:00,83.4,73.0,29.96,NE,48,0.0,2.0,71,0.00,,---,0.00,VWS V14.01,2013-07-08 20:50:00,
2013-07-08 16:55:00,83.2,73.2,29.96,East,83,0.0,2.0,72,0.00,,---,0.00,VWS V14.01,2013-07-08 20:55:00,
2013-07-08 17:00:00,83.0,73.5,29.97,East,83,0.0,1.0,73,0.00,,---,0.00,VWS V14.01,2013-07-08 21:00:00,
2013-07-08 17:05:00,82.9,72.5,29.96,SE,129,1.0,3.0,71,0.00,,---,0.00,VWS V14.01,2013-07-08 21:05:00,
2013-07-08 17:10:00,82.3,72.0,29.97,North,10,2.0,4.0,71,0.00,,---,0.00,VWS V14.01,2013-07-08 21:10:00,
2013-07-08 17:15:00,81.7,72.2,29.97,SSE,152,0.0,3.0,73,0.00,,---,0.00,VWS V14.01,2013-07-08 21:15:00,
2013-07-08 17:20:00,81.4,71.1,29.97,ENE,73,1.0,3.0,71,0.00,,---,0.00,VWS V14.01,2013-07-08 21:20:00,
2013-07-08 17:25:00,81.0,71.5,29.97,NNW,337,0.0,1.0,73,0.00,,---,0.00,VWS V14.01,2013-07-08 21:25:00,
2013-07-08 17:30:00,80.5,70.2,29.97,South,175,0.0,2.0,71,0.00,,---,0.00,VWS V14.01,2013-07-08 21:30:00,
2013-07-08 17:35:00,79.8,70.0,29.97,WSW,239,0.0,1.0,72,0.00,,---,0.00,VWS V14.01,2013-07-08 21:35:00,
2013-07-08 17:40:00,79.2,69.8,29.97,East,84,0.0,2.0,73,0.00,,---,0.00,VWS V14.01,2013-07-08 21:40:00,
2013-07-08 17:45:00,78.7,69.7,29.97,WNW,287,0.0,2.0,74,0.00,,---,0.00,VWS V14.01,2013-07-08 21:45:00,
2013-07-08 17:50:00,78.3,69.3,29.97,NNE,30,0.0,2.0,74,0.00,,---,0.00,VWS V14.01,2013-07-08 21:50:00,
2013-07-08 17:55:00,77.5,68.6,29.97,North,6,0.0,3.0,74,0.00,,---,0.00,VWS V14.01,2013-07-08 21:55:00,
2013-07-08 18:00:00,76.8,68.7,29.98,NNE,21,0.0,1.0,76,0.00,,---,0.00,VWS V14.01,2013-07-08 22:00:00,
2013-07-08 18:05:00,76.1,68.8,29.98,SE,128,0.0,2.0,78,0.00,,---,0.00,VWS V14.01,2013-07-08 22:05:00,
2013-07-08 18:10:00,75.4,68.1,29.98,North,356,0.0,4.0,78,0.00,,---,0.00,VWS V14.01,2013-07-08 22:10:00,
2013-07-08 18:15:00,74.9,67.9,29.98,North,11,0.0,3.0,79,0.00,,---,0.00,VWS V14.01,2013-07-08 22:15:00,
2013-07-08 18:20:00,74.4,67.8,29.99,NNE,15,0.0,1.0,80,0.00,,---,0.00,VWS V14.01,2013-07-08 22:20:00,
2013-07-08 18:25:00,74.0,67.4,29.99,NE,40,0.0,3.0,80,0.00,,---,0.00,VWS V14.01,2013-07-08 22:25:00,
2013-07-08 18:30:00,73.5,67.3,29.99,NE,55,0.0,1.0,81,0.00,,---,0.00,VWS V14.01,2013-07-08 22:30:00,
2013-07-08 18:35:00,73.2,67.4,29.99,NE,55,0.0,1.0,82,0.00,,---,0.00,VWS V14.01,2013-07-08 22:35:00,
2013-07-08 18:40:00,72.8,67.3,29.99,NNW,344,0.0,3.0,83,0.00,,---,0.00,VWS V14.01,2013-07-08 22:40:00,
2013-07-08 18:45:00,72.6,67.2,29.99,North,350,0.0,1.0,83,0.00,,---,0.00,VWS V14.01,2013-07-08 22:45:00,
2013-07-08 18:50:00,72.4,66.9,30.00,North,350,0.0,1.0,83,0.00,,---,0.00,VWS V14.01,2013-07-08 22:50:00,
2013-07-08 18:55:00,72.2,67.1,30.00,North,350,0.0,1.0,84,0.00,,---,0.00,VWS V14.01,2013-07-08 22:55:00,
2013-07-08 19:00:00,72.1,67.0,30.00,North,350,1.0,1.0,84,0.00,,---,0.00,VWS V14.01,2013-07-08 23:00:00,
2013-07-08 19:05:00,71.7,66.6,30.00,North,350,0.0,2.0,84,0.00,,---,0.00,VWS V14.01,2013-07-08 23:05:00,
2013-07-08 19:10:00,71.6,66.9,30.01,North,350,0.0,0.0,85,0.00,,---,0.00,VWS V14.01,2013-07-08 23:10:00,
2013-07-08 19:15:00,71.6,66.9,30.00,North,350,0.0,0.0,85,0.00,,---,0.00,VWS V14.01,2013-07-08 23:15:00,
2013-07-08 19:20:00,71.7,67.3,30.01,North,350,0.0,1.0,86,0.00,,---,0.00,VWS V14.01,2013-07-08 23:20:00,
2013-07-08 19:25:00,71.6,66.9,30.01,North,351,0.0,1.0,85,0.00,,---,0.00,VWS V14.01,2013-07-08 23:25:00,
2013-07-08 19:30:00,71.6,67.2,30.01,NNW,341,0.0,1.0,86,0.00,,---,0.00,VWS V14.01,2013-07-08 23:30:00,
2013-07-08 19:35:00,71.5,66.8,30.00,NNW,341,0.0,1.0,85,0.00,,---,0.00,VWS V14.01,2013-07-08 23:35:00,
2013-07-08 19:40:00,71.4,66.3,30.00,NNW,341,0.0,1.0,84,0.00,,---,0.00,VWS V14.01,2013-07-08 23:40:00,
2013-07-08 19:45:00,71.3,66.2,30.01,NNW,341,0.0,1.0,84,0.00,,---,0.00,VWS V14.01,2013-07-08 23:45:00,
2013-07-08 19:50:00,70.9,65.8,30.01,NNE,25,0.0,5.0,84,0.00,,---,0.00,VWS V14.01,2013-07-08 23:50:00,
2013-07-08 19:55:00,70.6,65.5,30.01,NNE,19,0.0,1.0,84,0.00,,---,0.00,VWS V14.01,2013-07-08 23:55:00,
2013-07-08 20:00:00,70.4,65.7,30.01,NNE,20,0.0,0.0,85,0.00,,---,0.00,VWS V14.01,2013-07-09 00:00:00,
2013-07-08 20:05:00,70.3,65.6,30.02,NNE,19,0.0,1.0,85,0.00,,---,0.00,VWS V14.01,2013-07-09 00:05:00,
2013-07-08 20:10:00,70.2,65.8,30.02,NNE,19,0.0,0.0,86,0.00,,---,0.00,VWS V14.01,2013-07-09 00:10:00,
2013-07-08 20:15:00,70.1,65.7,30.01,NNE,20,0.0,0.0,86,0.00,,---,0.00,VWS V14.01,2013-07-09 00:15:00,
2013-07-08 20:20:00,69.9,65.5,30.02,South,172,0.0,2.0,86,0.00,,---,0.00,VWS V14.01,2013-07-09 00:20:00,
2013-07-08 20:25:00,69.8,65.4,30.02,South,172,0.0,0.0,86,0.00,,---,0.00,VWS V14.01,2013-07-09 00:25:00,
2013-07-08 20:30:00,69.7,65.7,30.01,South,172,0.0,1.0,87,0.00,,---,0.00,VWS V14.01,2013-07-09 00:30:00,
2013-07-08 20:35:00,69.6,65.6,30.02,South,172,0.0,0.0,87,0.00,,---,0.00,VWS V14.01,2013-07-09 00:35:00,
2013-07-08 20:40:00,69.6,65.6,30.02,South,172,0.0,0.0,87,0.00,,---,0.00,VWS V14.01,2013-07-09 00:40:00,
2013-07-08 20:45:00,69.5,65.5,30.02,South,172,0.0,1.0,87,0.00,,---,0.00,VWS V14.01,2013-07-09 00:45:00,
2013-07-08 20:50:00,69.4,65.7,30.03,South,172,0.0,1.0,88,0.00,,---,0.00,VWS V14.01,2013-07-09 00:50:00,
2013-07-08 20:55:00,69.4,65.7,30.03,South,172,0.0,0.0,88,0.00,,---,0.00,VWS V14.01,2013-07-09 00:55:00,
2013-07-08 21:00:00,69.4,65.7,30.03,South,172,0.0,0.0,88,0.00,,---,0.00,VWS V14.01,2013-07-09 01:00:00,
2013-07-08 21:05:00,69.4,65.7,30.03,South,172,0.0,1.0,88,0.00,,---,0.00,VWS V14.01,2013-07-09 01:05:00,
2013-07-08 21:10:00,69.5,65.8,30.04,NE,53,0.0,2.0,88,0.00,,---,0.00,VWS V14.01,2013-07-09 01:10:00,
2013-07-08 21:15:00,69.4,65.7,30.04,NE,53,0.0,0.0,88,0.00,,---,0.00,VWS V14.01,2013-07-09 01:15:00,
2013-07-08 21:20:00,69.5,65.8,30.04,NE,53,0.0,1.0,88,0.00,,---,0.00,VWS V14.01,2013-07-09 01:20:00,
2013-07-08 21:25:00,69.5,65.8,30.04,NE,53,0.0,0.0,88,0.00,,---,0.00,VWS V14.01,2013-07-09 01:25:00,
2013-07-08 21:30:00,69.5,65.8,30.04,NE,53,0.0,0.0,88,0.00,,---,0.00,VWS V14.01,2013-07-09 01:30:00,
2013-07-08 21:35:00,69.4,65.7,30.04,NE,53,0.0,1.0,88,0.00,,---,0.00,VWS V14.01,2013-07-09 01:35:00,
2013-07-08 21:40:00,69.4,65.7,30.04,NE,53,0.0,0.0,88,0.00,,---,0.00,VWS V14.01,2013-07-09 01:40:00,
2013-07-08 21:45:00,69.3,65.6,30.05,NE,53,0.0,0.0,88,0.00,,---,0.00,VWS V14.01,2013-07-09 01:45:00,
2013-07-08 21:50:00,69.3,65.6,30.04,NE,53,0.0,1.0,88,0.00,,---,0.00,VWS V14.01,2013-07-09 01:50:00,
2013-07-08 21:55:00,69.3,65.6,30.04,NE,35,0.0,2.0,88,0.00,,---,0.00,VWS V14.01,2013-07-09 01:55:00,
2013-07-08 22:00:00,69.3,65.6,30.04,NE,35,1.0,1.0,88,0.00,,---,0.00,VWS V14.01,2013-07-09 02:00:00,
2013-07-08 22:05:00,69.3,65.6,30.04,NE,35,0.0,1.0,88,0.00,,---,0.00,VWS V14.01,2013-07-09 02:05:00,
2013-07-08 22:10:00,69.3,65.6,30.05,NE,35,0.0,1.0,88,0.00,,---,0.00,VWS V14.01,2013-07-09 02:10:00,
2013-07-08 22:15:00,69.3,65.9,30.05,NE,35,0.0,0.0,89,0.00,,---,0.00,VWS V14.01,2013-07-09 02:15:00,
2013-07-08 22:20:00,69.3,65.9,30.05,NE,35,0.0,1.0,89,0.00,,---,0.00,VWS V14.01,2013-07-09 02:20:00,
2013-07-08 22:25:00,69.2,65.8,30.05,NE,35,0.0,2.0,89,0.00,,---,0.00,VWS V14.01,2013-07-09 02:25:00,
2013-07-08 22:30:00,69.2,66.2,30.05,NE,35,0.0,0.0,90,0.00,,---,0.00,VWS V14.01,2013-07-09 02:30:00,
2013-07-08 22:35:00,69.1,66.1,30.05,NE,35,0.0,1.0,90,0.00,,---,0.00,VWS V14.01,2013-07-09 02:35:00,
2013-07-08 22:40:00,69.1,66.1,30.05,NE,35,0.0,0.0,90,0.00,,---,0.00,VWS V14.01,2013-07-09 02:40:00,
2013-07-08 22:45:00,69.0,65.9,30.05,NE,35,0.0,1.0,90,0.00,,---,0.00,VWS V14.01,2013-07-09 02:45:00,
2013-07-08 22:50:00,69.0,65.9,30.06,NE,35,0.0,0.0,90,0.00,,---,0.00,VWS V14.01,2013-07-09 02:50:00,
2013-07-08 22:55:00,68.9,65.8,30.06,NE,35,0.0,0.0,90,0.00,,---,0.00,VWS V14.01,2013-07-09 02:55:00,
2013-07-08 23:00:00,68.9,65.8,30.05,NE,35,0.0,0.0,90,0.00,,---,0.00,VWS V14.01,2013-07-09 03:00:00,
2013-07-08 23:05:00,68.9,66.2,30.05,NE,35,0.0,0.0,91,0.00,,---,0.00,VWS V14.01,2013-07-09 03:05:00,
2013-07-08 23:10:00,68.9,66.2,30.05,NE,35,0.0,0.0,91,0.00,,---,0.00,VWS V14.01,2013-07-09 03:10:00,
2013-07-08 23:15:00,68.8,66.1,30.05,NE,35,0.0,1.0,91,0.00,,---,0.00,VWS V14.01,2013-07-09 03:15:00,
2013-07-08 23:20:00,68.5,65.8,30.05,NE,35,0.0,2.0,91,0.00,,---,0.00,VWS V14.01,2013-07-09 03:20:00,
2013-07-08 23:25:00,68.2,65.5,30.06,NNE,30,0.0,2.0,91,0.00,,---,0.00,VWS V14.01,2013-07-09 03:25:00,
2013-07-08 23:30:00,68.0,65.6,30.06,NNE,30,0.0,0.0,92,0.00,,---,0.00,VWS V14.01,2013-07-09 03:30:00,
2013-07-08 23:35:00,67.9,65.5,30.06,NNE,30,0.0,1.0,92,0.00,,---,0.00,VWS V14.01,2013-07-09 03:35:00,
2013-07-08 23:40:00,67.7,65.3,30.07,NNE,30,0.0,1.0,92,0.00,,---,0.00,VWS V14.01,2013-07-09 03:40:00,
2013-07-08 23:45:00,67.6,65.2,30.06,NNE,30,0.0,1.0,92,0.00,,---,0.00,VWS V14.01,2013-07-09 03:45:00,
2013-07-08 23:50:00,67.5,65.1,30.06,NNE,30,0.0,1.0,92,0.00,,---,0.00,VWS V14.01,2013-07-09 03:50:00,
2013-07-08 23:55:00,67.4,65.0,30.06,NNE,30,0.0,1.0,92,0.00,,---,0.00,VWS V14.01,2013-07-09 03:55:00,